{"data":{"norad_id":46746,"epoch":"2026-05-25T00:00:02.000160Z","epoch_age_seconds":71658,"freshness":"FRESH","line1":"1 46746U 20074H   26145.00002315  .00076758  00000+0  39870-3 0  9991","line2":"2 46746  53.0363 265.4223 0005316 288.0148 270.4048 15.80314650  6003","mean_motion":15.8031465,"eccentricity":0.0005316,"inclination_deg":53.0363,"raan_deg":265.4223,"arg_perigee_deg":288.0148,"mean_anomaly_deg":270.4048,"bstar":0.0003987,"rev_number":600,"period_min":91.121094144131,"perigee_km":325.98432074855,"apogee_km":333.11593370221,"semimajor_km":6707.6871272254,"source":"CELESTRAK","updated_at":"2026-05-25T13:38:16.519006Z"}}